EW6655 Weather Reports


time (UTC)temp
C
wind
direction
speed
KPH
gust
KPH
rain 1hr
cm
rain 24hr
cm
rain mn
cm
humidity
%
barometer
mb
20260904123017 21 251 11.3 30.6 0.00 0.18 0.15 76 1012.4
20260904121517 21 251 6.4 22.5 0.00 0.18 0.15 77 1012.6
20260904120017 21 251 11.3 46.7 0.00 0.18 0.15 76 1012.7
20260904114520 21 273 8.0 27.4 0.00 0.18 0.15 77 1012.5
20260904113026 21 344 14.5 32.2 0.00 0.18 0.15 76 1012.6
20260904111512 21 228 12.9 30.6 0.00 0.18 0.15 76 1012.5
20260904110009 21 255 12.9 33.8 0.00 0.18 0.15 79 1012.6
20260904104506 20 32 6.4 27.4 0.00 0.18 0.15 82 1012.8
20260904103005 20 238 9.7 20.9 0.00 0.18 0.15 82 1013.0
20260904101504 20 279 9.7 27.4 0.00 0.18 0.15 82 1013.1
20260904100003 20 42 4.8 24.1 0.00 0.18 0.15 84 1013.3
20260904094500 20 252 14.5 30.6 0.00 0.18 0.15 84 1013.3
20260904093101 20 253 4.8 32.2 0.00 0.18 0.15 84 1013.4
20260904093002 20 247 8.0 32.2 0.00 0.18 0.15 84 1013.4
20260904091600 20 263 9.7 27.4 0.00 0.18 0.15 84 1013.4
20260904090059 20 265 8.0 29.0 0.00 0.18 0.15 85 1013.2
20260904084559 20 265 6.4 25.7 0.00 0.18 0.15 86 1013.1
20260904083106 20 246 9.7 25.7 0.00 0.18 0.15 86 1012.9
20260904081555 20 242 12.9 29.0 0.00 0.18 0.15 86 1013.1
20260904080058 19 263 11.3 30.6 0.00 0.18 0.15 88 1013.2
20260904074555 19 263 6.4 29.0 0.00 0.18 0.15 88 1013.4
20260904073100 19 230 11.3 22.5 0.00 0.18 0.15 89 1013.5
20260904071546 18 232 11.3 24.1 0.00 0.18 0.15 89 1013.7
20260904070046 18 246 9.7 30.6 0.00 0.18 0.15 90 1013.8
20260904064541 18 261 11.3 32.2 0.00 0.18 0.15 91 1014.0
20260904063035 18 259 12.9 24.1 0.00 0.18 0.15 91 1014.1
20260904061538 18 206 4.8 24.1 0.00 0.18 0.15 91 1014.2
20260904060046 18 254 11.3 22.5 0.00 0.18 0.15 91 1014.3
20260904054538 18 267 11.3 25.7 0.00 0.18 0.15 92 1014.6
20260904053031 18 344 9.7 20.9 0.00 0.18 0.15 92 1014.7
20260904051525 18 243 8.0 22.5 0.00 0.18 0.15 92 1014.7
20260904050038 18 211 12.9 24.1 0.00 0.18 0.15 91 1014.9
20260904044521 18 271 6.4 25.7 0.00 0.18 0.15 91 1014.8
20260904043016 18 264 8.0 30.6 0.00 0.18 0.15 92 1015.1
20260904041518 18 255 6.4 19.3 0.00 0.18 0.15 92 1015.2
20260904040026 18 251 4.8 25.7 0.00 0.18 0.15 92 1015.4
20260904034513 17 221 8.0 19.3 0.00 0.18 0.15 92 1015.5
20260904033011 17 230 8.0 24.1 0.00 0.18 0.15 92 1015.6
20260904031509 17 274 6.4 16.1 0.00 0.18 0.15 93 1015.8
20260904030006 17 266 9.7 27.4 0.00 0.18 0.15 93 1015.9
20260904024505 17 211 8.0 20.9 0.00 0.18 0.15 93 1016.3
20260904023003 17 222 6.4 27.4 0.00 0.18 0.15 93 1016.3
20260904021503 17 260 9.7 24.1 0.00 0.18 0.15 93 1016.4
20260904014559 17 323 11.3 24.1 0.00 0.18 0.15 93 1016.7
20260904013121 17 261 11.3 30.6 0.00 0.18 0.15 93 1016.9
20260904011553 17 261 8.0 17.7 0.00 0.18 0.15 94 1017.0
20260904010053 17 265 11.3 25.7 0.15 0.18 0.15 93 1017.1
20260904004549 17 268 6.4 24.1 0.15 0.18 0.15 93 1017.4
20260904003047 17 259 9.7 22.5 0.15 0.18 0.15 93 1017.4
20260904001600 17 323 8.0 22.5 0.13 0.15 0.13 93 1017.7
20260904000042 17 244 8.0 27.4 0.00 0.05 0.00 92 1017.6
20260903234540 17 297 6.4 17.7 0.00 0.05 0.00 92 1017.8
20260903233043 17 253 4.8 16.1 0.00 0.05 0.00 92 1017.9
20260903231535 17 245 8.0 24.1 0.00 0.05 0.00 92 1017.9
20260903230035 17 244 6.4 16.1 0.00 0.05 0.00 92 1018.0
20260903224534 17 255 11.3 29.0 0.00 0.05 0.00 91 1017.9
20260903223029 17 254 6.4 24.1 0.00 0.05 0.00 92 1018.2
20260903221526 17 244 8.0 20.9 0.00 0.05 0.00 92 1018.5
20260903220024 17 245 4.8 24.1 0.00 0.05 0.00 92 1018.7
20260903214533 17 252 4.8 22.5 0.00 0.05 0.05 91 1018.8
20260903213035 17 250 9.7 25.7 0.03 0.05 0.05 92 1018.8
20260903211522 17 240 6.4 19.3 0.03 0.05 0.05 92 1018.9
20260903210022 17 244 4.8 20.9 0.03 0.05 0.05 93 1018.9
20260903204521 17 240 4.8 19.3 0.05 0.05 0.05 93 1018.9
20260903203020 17 271 6.4 19.3 0.03 0.03 0.03 92 1018.9
20260903201520 17 254 9.7 25.7 0.03 0.03 0.03 92 1018.8
20260903200020 17 244 4.8 22.5 0.03 0.03 0.03 92 1019.0
20260903194519 17 238 9.7 17.7 0.00 0.00 0.00 91 1019.1
20260903193020 17 223 6.4 22.5 0.00 0.00 0.00 90 1018.9
20260903191528 17 234 8.0 22.5 0.00 0.00 0.00 90 1019.0
20260903190018 17 248 4.8 17.7 0.00 0.00 0.00 90 1019.0
20260903184517 17 240 6.4 22.5 0.00 0.00 0.00 90 1019.0
20260903183025 17 283 6.4 22.5 0.00 0.00 0.00 90 1019.1
20260903181515 17 251 8.0 22.5 0.00 0.00 0.00 90 1019.1
20260903180025 17 226 8.0 27.4 0.00 0.00 0.00 90 1019.0
20260903174513 17 246 8.0 22.5 0.00 0.00 0.00 90 1018.9
20260903173013 17 256 8.0 20.9 0.00 0.00 0.00 90 1019.2
20260903171512 17 234 6.4 19.3 0.00 0.00 0.00 90 1019.0
20260903170013 17 267 6.4 19.3 0.00 0.00 0.00 90 1019.0
20260903164510 17 233 6.4 17.7 0.00 0.00 0.00 90 1018.9
20260903163010 17 249 6.4 16.1 0.00 0.00 0.00 89 1018.8
20260903161509 17 269 4.8 17.7 0.00 0.00 0.00 89 1018.7
20260903160009 17 239 8.0 22.5 0.00 0.00 0.00 89 1019.0
20260903154508 17 237 8.0 17.7 0.00 0.00 0.00 90 1019.0
20260903153008 17 283 6.4 17.7 0.00 0.00 0.00 91 1019.1
20260903151510 17 234 6.4 25.7 0.00 0.00 0.00 91 1019.2
20260903150014 17 254 8.0 19.3 0.00 0.00 0.00 91 1019.1
20260903144513 17 273 4.8 17.7 0.00 0.00 0.00 91 1019.3
20260903143005 17 236 4.8 19.3 0.00 0.00 0.00 90 1019.3
20260903141507 17 313 9.7 22.5 0.00 0.00 0.00 89 1019.2
20260903140010 17 249 9.7 20.9 0.00 0.00 0.00 88 1019.2
20260903134502 17 253 4.8 19.3 0.00 0.00 0.00 87 1019.1
20260903133001 17 244 9.7 25.7 0.00 0.00 0.00 85 1019.0
20260903131501 18 248 8.0 24.1 0.00 0.00 0.00 84 1019.0
20260903130108 18 254 4.8 25.7 0.00 0.00 0.00 84 1019.0
20260903124609 18 239 6.4 24.1 0.00 0.00 0.00 84 1018.9